Location: Gull Harbor
(47.1000°N, 122.9000°W)
Time: 22:01:56
(UTC-07:00)

STARLINK-2727 - Pass Details

Date: 01 August 2021
Orbit: 546 x 548 km, 53.1° (Epoch: 23 September)

Event Time Altitude Azimuth Distance (km) Brightness Sun altitude
Rises 21:36:59 0° 290° (WNW) 2,726 8.8 -8.5°
Reaches altitude 10° 21:39:48 10° 271° (W) 1,827 7.2 -8.8°
Maximum altitude 21:42:35 18° 229° (SW) 1,402 5.8 -9.2°
Drops below altitude 10° 21:45:21 10° 186° (S) 1,817 5.9 -9.6°
Enters shadow 21:46:49 - 174° (S) 2,251 6.3 -9.8°
